Showing default

GONETS D1 1, 23787

Orbit data source: Space-Track

GONETS D1 1, 23787 is a payload satellite owned by Gonets (CIS) in LEO that was launched on Mon, 19 Feb 1996 UTC via a TSIKLON-3 launch vehicle from the Plesetsk Missile And Space Complex (PKMTR). Payload-class satellites include a variety of spacecraft equipped with specific instruments for various scientific and technological missions. These include communications satellites like Starlink; space stations such as the ISS; scientific satellites like the Hubble; Earth observation satellites from companies like Planet Labs, Umbra, and HawkEye 360; GPS; miniature CubeSats for education and research; and military/defense satellites.

Loading next visibility...
Identifier
23787, 1996-009A
Orbit
LEO
Country
Flag of CISCIS
Related business
Manufacturer
NPO PM
Mission
Non-operational Civil Communications
Bus & Motor
STRELA-3, Unknown motor
Mass
225 kg wet, 225 kg dry
Launch date (UTC)
1996-02-19 (30 years ago)
Launch vehicle
TSIKLON-3
Launch site
Plesetsk Missile And Space Complex (PKMTR)
Object type
Payload
Rocket body
Debris
Shape & HBR
Cyl + 1 Ant, 3.5 m
Radar Cross Section
1.798 m², Large (>1 m²)

Expand to show TLE details & history
Last TLE update: 11 hours ago

TLE from 11 hours ago
0 GONETS D1 1
1 23787U 96009A   26194.73868264  .00000020  00000-0  49686-4 0  9996
2 23787  82.5772 281.8935 0010586 348.2163 128.5288 12.64108000402667
Epoch: 2026-07-13T17:43Z
TLE epoch observation values (Epoch: 2026-07-13T17:43:42.180Z)
Latitude
62.31143°
Longitude
-109.9539°
Altitude
1,421.822 km
Speed
7.153 km/s
True Right ascension
05h 50m 21s
True Declination
62° 10' 54"
Sunlit
Object was in daylight at epoch
Visualization orbit readout
Latitude
Unknown
Longitude
Unknown
Altitude
Unknown
Speed
Unknown
Apparent Right ascension
Unknown
Apparent Declination
Unknown
Sunlit
N/A
Visualization observer readout
Local Sidereal Time
17:35:33
Azimuth
Unknown
Elevation
Unknown
Doppler factor
Unknown
Orbital elements
Apogee altitude
1,411.59 km
Perigee altitude
1,395.115 km
Semi-major axis
7,781.49 km
Eccentricity
0.00106
Inclination
82.5772°
RAAN
281.8935°
Arg. of periapsis
348.2163°
True anomaly
128.62362°
Mean anomaly
128.5288°
Eccentric anomaly
128.57622°
Mean motion
3.16191 °/min
Orbital period
113.86 mins
BSTAR
0.000049686
Loading maneuver chart data...
Computing Atmospheric mass density...
Loading historical data...
Loading historical data...
Loading historical data...
Loading historical data...
Loading historical data...
Loading historical data...
Loading historical data...

Documentation

Showing up to 5 results
|